(111) Ate
ephemeris date magn radius delta ra dec elong phase
Today26 Aug 202613.32.352 AU2.896 AU07h01m+25°18'48.6°18.8°
Opposition31 Jan 202710.82.334 AU1.348 AU08h53m+16°41'179.2°0.3°
(111) Ate - 2026-08-26
astro.vanbuitenen.nl


 
-1 year
-1 month
-1 day
Now
+1 day
+1 month
+1 year

The interactive orbit chart above shows the body's path through the solar system and its position at the given date. Green and blue lines are shown perpendicular to the ecliptic plane: Green if the path is above the ecliptic plane, blue if it is below. (Left-click and drag to rotate the view; Right-click and drag to move the view; Use scroll wheel to zoom in our out.)

The orbital elements of Ate are:

            e (Eccentricity)                : 0.1035803
            a (Semimajor axis)              : 2.5926626
            i (Inclination)                 : 4.93243
            Ω (Longitude of ascending node) : 305.66148
            ω (Argument of perihelion)      : 168.46344
            M (Mean anomaly)                : 317.88075
            Epoch                           : 2026 Jun 09

            L (Longitude of perihelion)     : 294.16650
            B (Latitude of perihelion)      : 0.98528
            P (Orbital period in years)     : 4.17            
        

The light curve chart below shows the estimated development of the minor planet's magnitude.


The all-sky chart below shows the path of the minor planet over the same period as the light curve. The current position is marked yellow.





The following chart shows the path of the minor planet in the next few days. The field of view is optimized for (~10x50) binoculars and finderscopes.




Ephemerides:
Date       Time       RA (2000)    DEC (2000)    delta   radius  elong  phase   PA    magn
2026-08-26 00:00 UT   07 01 41.2   +25 18 14     2.896    2.352   48.6   18.8   278   13.3 
2026-08-26 15:19 UT   07 02 55.4   +25 16 09     2.889    2.352   48.9   18.9   278   13.3 
2026-08-27 00:00 UT   07 03 37.4   +25 14 58     2.886    2.351   49.1   18.9   279   13.3 
2026-08-28 00:00 UT   07 05 33.3   +25 11 37     2.876    2.351   49.6   19.1   279   13.3 
2026-08-29 00:00 UT   07 07 28.8   +25 08 11     2.866    2.350   50.1   19.3   279   13.3 
2026-08-30 00:00 UT   07 09 24.0   +25 04 40     2.857    2.350   50.7   19.4   279   13.3 
2026-08-31 00:00 UT   07 11 18.7   +25 01 05     2.847    2.349   51.2   19.6   279   13.3 
2026-09-01 00:00 UT   07 13 13.1   +24 57 25     2.837    2.349   51.7   19.7   279   13.3 
2026-09-02 00:00 UT   07 15 07.0   +24 53 41     2.827    2.348   52.2   19.9   279   13.3 
2026-09-03 00:00 UT   07 17 00.5   +24 49 52     2.816    2.348   52.8   20.0   279   13.3 
2026-09-04 00:00 UT   07 18 53.6   +24 45 58     2.806    2.347   53.3   20.2   280   13.3 
2026-09-05 00:00 UT   07 20 46.3   +24 42 00     2.796    2.347   53.8   20.3   280   13.3 
2026-09-06 00:00 UT   07 22 38.5   +24 37 58     2.786    2.346   54.4   20.4   280   13.3 
2026-09-07 00:00 UT   07 24 30.3   +24 33 52     2.775    2.346   54.9   20.6   280   13.3 
2026-09-08 00:00 UT   07 26 21.6   +24 29 41     2.765    2.345   55.5   20.7   280   13.3 
2026-09-09 00:00 UT   07 28 12.4   +24 25 26     2.754    2.345   56.0   20.9   280   13.3 
2026-09-10 00:00 UT   07 30 02.7   +24 21 08     2.744    2.344   56.6   21.0   280   13.3 
2026-09-11 00:00 UT   07 31 52.6   +24 16 45     2.733    2.344   57.1   21.1   281   13.3 
2026-09-12 00:00 UT   07 33 41.9   +24 12 19     2.722    2.344   57.6   21.3   281   13.3 
2026-09-13 00:00 UT   07 35 30.8   +24 07 48     2.712    2.343   58.2   21.4   281   13.3 
2026-09-14 00:00 UT   07 37 19.1   +24 03 15     2.701    2.343   58.8   21.5   281   13.3 


    Terminology:
            
    delta:  distance between minor planet and earth in AU
    radius: distance between minor planet and sun in AU
    magn:   magnitude (brightness) estimate    
    ra:     right ascension in hours (24h = 360deg)
    dec:    declination in degrees
    elong:  elongation in degrees (angle sun-earth-minor planet)    
    phase:  phase angle in degrees (angle sun-minor planet-earth)        
    AU:     Astronomical Unit (mean distance between earth and sun: 149597870.7 km
    

Orbital elements provided by the MPC (Minor Planet Center).
Calculations by a modified version of AAPlus, a C# implementation of the AA+ project by PJ Naughter from the algorithms presented in the book "Astronomical Algorithms" by Jean Meeus.
NGC2000 dso catalog and star labels from VizieR as provided by the Strasbourg astronomical Data Center.
Tycho2 catalog from the ESO archive.